Location: Bun Machan
(52.1403°N, 7.3744°W)
Time: 02:15:00
(UTC+00:00)

Cosmos 1500 - Pass Details

Date: 14 July 2020
Orbit: 498 x 521 km, 82.5° (Epoch: 04 August)

Event Time Altitude Azimuth Distance (km) Brightness Sun altitude
Exits shadow 02:33:20 18° 196° (SSW) 1,300 4.6 -11.9°
Maximum altitude 02:36:03 77° 281° (WNW) 531 3.2 -11.7°
Drops below altitude 10° 02:39:52 10° 8° (N) 1,735 7.1 -11.4°
Sets 02:42:00 0° 10° (N) 2,622 8.3 -11.2°
